Regional Weather Roundup
Issued by NWS

Home | Current Version | Previous Version | Text Only | Print | Product List | Glossary Off
Versions: 1 2 3 4 5 6 7 8 9 10 11 12 13 14 15 16 17 18 19 20 21 22 23 24 25 26 27 28 29 30 31 32 33 34 35 36 37 38 39 40 41 42 43 44 45 46 47 48 49 50

000
ASUS43 KLMK 181602
RWRKY
KENTUCKY REGIONAL WEATHER ROUNDUP
NATIONAL WEATHER SERVICE LOUISVILLE KY
1200 PM EDT SAT APR 18 2015

NOTE "FAIR" INDICATES FEW OR NO CLOUDS BELOW 12,000 FEET
WITH NO SIGNIFICANT WEATHER AND/OR OBSTRUCTIONS TO VISIBILITY.

KYZ001>023-026-027-061>063-070>075-181700-
WESTERN AND SOUTH CENTRAL KENTUCKY

CITY           SKY/WX    TMP DP  RH WIND       PRES   REMARKS
PADUCAH        MOSUNNY   74  61  63 E13       30.00R
HENDERSON      PTSUNNY   72  61  68 E7        30.01R
OWENSBORO      PTSUNNY   74  60  61 SE7       30.02S HAZE
HOPKINSVILLE   PTSUNNY   71  60  68 E7        30.01R
BOWLING GREEN  MOSUNNY   73  61  65 E6        30.02R
GLASGOW        NOT AVBL
$$

KYZ024-025-028>034-038-045-046-053-181700-
NORTH CENTRAL KENTUCKY

CITY           SKY/WX    TMP DP  RH WIND       PRES   REMARKS
LOUISVILLE/SDF PTSUNNY   75  50  41 VRB3      30.03F
LOUISVILLE/LOU PTSUNNY   74  51  44 NE3       30.04S
FORT KNOX      MOSUNNY   74  57  56 E7        30.01S
$$

KYZ035>037-039>044-047>052-055>060-089>105-181700-
NORTHEAST KENTUCKY

CITY           SKY/WX    TMP DP  RH WIND       PRES   REMARKS
LEXINGTON      CLOUDY    72  49  44 E7        30.05F
COVINGTON      CLOUDY    72  44  36 E7        30.06S
FRANKFORT      CLOUDY    72  53  51 VRB3      30.04F
$$

KYZ054-064>069-076>088-106>120-181700-
SOUTHEAST KENTUCKY

CITY           SKY/WX    TMP DP  RH WIND       PRES   REMARKS
JACKSON        CLOUDY    72  53  51 VRB5      30.05S
LONDON         CLOUDY    74  54  49 SE7       30.03F
SOMERSET       NOT AVBL
MIDDLESBORO    NOT AVBL
MONTICELLO     PTSUNNY   74  60  61 NE7       30.04F
$$



USA.gov is the U.S. government's official web portal to all federal, state and local government web resources and services.